OOJRE EBOS-LDSB

Flight info

Callsign OOJRE
Flight time N/A
Altitude 45000
Route FERDI UL607 REMBA DCT PITES DCT EDISA DCT UTABA L607 ELMEM N606 OTRES T307 DIRAB DCT VESAL DCT PEVAL DCT NAKIT DCT ZDA/N0401F190 L607 SPL
Aircraft E55P/M-SDGRWY/L

Departure

Time N/A
Airport Ostend-Bruges International Airport (EBOS)

Arrival

Time 2026-04-17 10:24
Airport Brač Airport (LDSB)
Time Latitude Longitude Altitude Speed Heading
2026-04-17 08:52 49.77076 6.44886 45226 ft 452 kts 134°
2026-04-17 08:52 49.73121 6.51521 45220 ft 453 kts 131°
2026-04-17 08:53 49.69830 6.59499 45228 ft 455 kts 122°
2026-04-17 08:53 49.66650 6.67437 45216 ft 456 kts 123°
2026-04-17 08:54 49.63426 6.75455 45232 ft 456 kts 123°
2026-04-17 08:54 49.60206 6.83438 45219 ft 457 kts 123°
2026-04-17 08:55 49.56933 6.91534 45217 ft 458 kts 123°
2026-04-17 08:55 49.53682 6.99543 45233 ft 458 kts 123°
2026-04-17 08:56 49.50452 7.07480 45236 ft 459 kts 123°
2026-04-17 08:56 49.47230 7.15376 45236 ft 459 kts 123°
2026-04-17 08:57 49.43927 7.23443 45226 ft 460 kts 123°
2026-04-17 08:57 49.40608 7.31523 45234 ft 461 kts 123°
2026-04-17 08:58 49.37317 7.39515 45234 ft 461 kts 123°
2026-04-17 08:58 49.34020 7.47494 45233 ft 462 kts 122°
2026-04-17 08:59 49.30778 7.55317 45219 ft 463 kts 122°
2026-04-17 08:59 49.27493 7.63222 45206 ft 464 kts 122°
2026-04-17 09:00 49.24185 7.71161 45213 ft 464 kts 123°
2026-04-17 09:00 49.20861 7.79110 45207 ft 465 kts 123°
2026-04-17 09:01 49.17473 7.87188 45212 ft 466 kts 123°
2026-04-17 09:01 49.14048 7.95329 45213 ft 466 kts 123°
2026-04-17 09:02 49.10583 8.03542 45224 ft 467 kts 123°
2026-04-17 09:02 49.07155 8.11642 45211 ft 467 kts 123°
2026-04-17 09:03 49.03721 8.19731 45221 ft 467 kts 123°
2026-04-17 09:03 49.00251 8.27880 45224 ft 467 kts 123°
2026-04-17 09:04 48.96154 8.35452 45234 ft 466 kts 134°
2026-04-17 09:04 48.91614 8.42715 45234 ft 466 kts 134°
2026-04-17 09:05 48.87079 8.49946 45231 ft 466 kts 134°
2026-04-17 09:05 48.82602 8.57062 45221 ft 467 kts 134°
2026-04-17 09:06 48.78117 8.64172 45227 ft 466 kts 134°
2026-04-17 09:06 48.73606 8.71304 45226 ft 465 kts 135°
2026-04-17 09:07 48.69088 8.78426 45209 ft 464 kts 135°
2026-04-17 09:07 48.64646 8.85410 45214 ft 463 kts 135°
2026-04-17 09:08 48.60193 8.92395 45210 ft 462 kts 135°
2026-04-17 09:08 48.55798 8.99269 45226 ft 462 kts 135°
2026-04-17 09:09 48.51514 9.05951 45214 ft 461 kts 135°
2026-04-17 09:09 48.47329 9.12463 45218 ft 461 kts 135°
2026-04-17 09:10 48.40998 9.22279 45218 ft 461 kts 134°
2026-04-17 09:10 48.36709 9.28909 45219 ft 460 kts 134°
2026-04-17 09:11 48.32418 9.35526 45220 ft 460 kts 134°
2026-04-17 09:11 48.28209 9.41999 45214 ft 460 kts 134°
2026-04-17 09:12 48.23761 9.48443 45233 ft 459 kts 140°
2026-04-17 09:12 48.19065 9.54510 45229 ft 459 kts 139°
2026-04-17 09:13 48.14413 9.60527 45225 ft 459 kts 139°
2026-04-17 09:13 48.09708 9.66600 45225 ft 459 kts 140°
2026-04-17 09:14 48.05067 9.72574 45226 ft 459 kts 140°
2026-04-17 09:14 48.00429 9.78530 45232 ft 458 kts 140°
2026-04-17 09:15 47.95787 9.84477 45225 ft 458 kts 140°
2026-04-17 09:15 47.91228 9.90301 45227 ft 457 kts 140°
2026-04-17 09:16 47.86657 9.96130 45226 ft 456 kts 140°
2026-04-17 09:16 47.82045 10.01750 45230 ft 455 kts 144°
2026-04-17 09:17 47.77298 10.06984 45230 ft 455 kts 144°
2026-04-17 09:17 47.72536 10.12257 45230 ft 455 kts 144°
2026-04-17 09:18 47.67827 10.17460 45230 ft 456 kts 144°
2026-04-17 09:18 47.63133 10.22638 45227 ft 456 kts 144°
2026-04-17 09:19 47.58475 10.27765 45234 ft 456 kts 144°
2026-04-17 09:19 47.53788 10.32912 45248 ft 457 kts 144°
2026-04-17 09:20 47.49122 10.38022 45258 ft 457 kts 144°
2026-04-17 09:20 47.44396 10.43187 45264 ft 458 kts 144°
2026-04-17 09:21 47.39664 10.48251 45253 ft 458 kts 149°
2026-04-17 09:21 47.34662 10.52231 45270 ft 458 kts 152°
2026-04-17 09:22 47.29573 10.56268 45270 ft 459 kts 152°
2026-04-17 09:22 47.24483 10.60404 45296 ft 459 kts 154°
2026-04-17 09:23 47.19294 10.64407 45294 ft 460 kts 153°
2026-04-17 09:23 47.13928 10.67896 45306 ft 459 kts 161°
2026-04-17 09:24 47.08536 10.70844 45301 ft 460 kts 161°
2026-04-17 09:24 47.03093 10.73963 45276 ft 463 kts 152°
2026-04-17 09:25 47.00800 10.76506 45315 ft 463 kts 135°
2026-04-17 09:25 46.98769 10.79695 45292 ft 464 kts 134°
2026-04-17 09:25 46.94696 10.85943 45282 ft 466 kts 134°
2026-04-17 09:26 46.90554 10.92265 45289 ft 466 kts 134°
2026-04-17 09:26 46.86406 10.98580 45278 ft 463 kts 134°
2026-04-17 09:27 46.82280 11.04845 45267 ft 461 kts 134°
2026-04-17 09:27 46.78244 11.10908 45278 ft 458 kts 130°
2026-04-17 09:28 46.74285 11.17258 45264 ft 456 kts 133°
2026-04-17 09:28 46.70295 11.23476 45264 ft 454 kts 133°
2026-04-17 09:29 46.66313 11.29650 45265 ft 453 kts 133°
2026-04-17 09:29 46.62397 11.35710 45251 ft 451 kts 133°
2026-04-17 09:30 46.58448 11.41807 45251 ft 449 kts 133°
2026-04-17 09:30 46.54507 11.47877 45250 ft 447 kts 133°
2026-04-17 09:31 46.50618 11.53854 45242 ft 445 kts 133°
2026-04-17 09:31 46.46717 11.59835 45242 ft 444 kts 133°
2026-04-17 09:32 46.42813 11.65809 45238 ft 443 kts 134°
2026-04-17 09:32 46.38972 11.71680 45222 ft 442 kts 132°
2026-04-17 09:33 46.35154 11.77359 45225 ft 440 kts 136°
2026-04-17 09:33 46.31222 11.82985 45204 ft 440 kts 135°
2026-04-17 09:34 46.27261 11.88730 45211 ft 439 kts 135°
2026-04-17 09:34 46.23378 11.94361 45212 ft 440 kts 135°
2026-04-17 09:35 46.19400 12.00118 45230 ft 441 kts 135°
2026-04-17 09:35 46.15377 12.05927 45211 ft 443 kts 135°
2026-04-17 09:36 46.11389 12.11674 45214 ft 444 kts 134°
2026-04-17 09:36 46.07347 12.17488 45208 ft 445 kts 135°
2026-04-17 09:37 46.03315 12.23271 45190 ft 447 kts 135°
2026-04-17 09:37 45.99258 12.29080 45178 ft 448 kts 135°
2026-04-17 09:38 45.95272 12.34773 45167 ft 448 kts 135°
2026-04-17 09:38 45.91264 12.40486 45163 ft 448 kts 135°
2026-04-17 09:39 45.87260 12.46179 45162 ft 449 kts 135°
2026-04-17 09:39 45.83328 12.51759 45158 ft 448 kts 134°
2026-04-17 09:40 45.79271 12.57506 45154 ft 448 kts 134°
2026-04-17 09:40 45.75102 12.63398 45146 ft 448 kts 134°
2026-04-17 09:41 45.70906 12.69316 45143 ft 448 kts 135°
2026-04-17 09:41 45.66587 12.75390 45136 ft 448 kts 135°
2026-04-17 09:42 45.62228 12.81508 45142 ft 447 kts 135°
2026-04-17 09:42 45.57849 12.87639 45140 ft 447 kts 135°
2026-04-17 09:43 45.53534 12.93669 45136 ft 446 kts 135°
2026-04-17 09:43 45.49180 12.99740 45132 ft 446 kts 135°
2026-04-17 09:44 45.44797 13.05833 45134 ft 445 kts 135°
2026-04-17 09:44 45.40487 13.11813 45134 ft 445 kts 135°
2026-04-17 09:45 45.36234 13.17706 45142 ft 444 kts 135°
2026-04-17 09:45 45.31953 13.23619 45135 ft 444 kts 135°
2026-04-17 09:46 45.27785 13.29719 45180 ft 440 kts 124°
2026-04-17 09:46 45.24075 13.36187 45144 ft 441 kts 130°
2026-04-17 09:47 45.20272 13.42389 45135 ft 441 kts 130°
2026-04-17 09:47 45.16457 13.48453 45133 ft 439 kts 122°
2026-04-17 09:48 45.13152 13.54950 45149 ft 439 kts 126°
2026-04-17 09:48 45.09641 13.61338 45152 ft 440 kts 127°
2026-04-17 09:49 45.06069 13.67779 45145 ft 441 kts 128°
2026-04-17 09:49 45.02544 13.74114 45148 ft 442 kts 127°
2026-04-17 09:50 44.98877 13.80691 45146 ft 443 kts 127°
2026-04-17 09:50 44.95248 13.87184 45150 ft 444 kts 127°
2026-04-17 09:51 44.91717 13.93490 45145 ft 445 kts 128°
2026-04-17 09:51 44.88233 13.99696 45151 ft 445 kts 128°
2026-04-17 09:52 44.84602 14.06151 45145 ft 446 kts 128°
2026-04-17 09:52 44.80950 14.12623 44973 ft 439 kts 128°
2026-04-17 09:53 44.79063 14.15964 44541 ft 441 kts 128°
2026-04-17 09:53 44.77200 14.19257 44053 ft 446 kts 127°
2026-04-17 09:53 44.75331 14.22556 43638 ft 447 kts 127°
2026-04-17 09:53 44.73429 14.25913 43303 ft 446 kts 127°
2026-04-17 09:54 44.71545 14.29232 43008 ft 444 kts 127°
2026-04-17 09:54 44.69636 14.32592 42660 ft 443 kts 127°
2026-04-17 09:54 44.67744 14.35918 42284 ft 444 kts 127°
2026-04-17 09:54 44.65922 14.39118 41891 ft 444 kts 127°
2026-04-17 09:55 44.64148 14.42229 41487 ft 445 kts 127°
2026-04-17 09:55 44.62376 14.45332 41086 ft 445 kts 127°
2026-04-17 09:55 44.60588 14.48464 40706 ft 445 kts 127°
2026-04-17 09:55 44.58835 14.51527 40322 ft 444 kts 127°
2026-04-17 09:56 44.56980 14.54766 39788 ft 444 kts 127°
2026-04-17 09:56 44.55135 14.57987 39116 ft 445 kts 127°
2026-04-17 09:56 44.53318 14.61151 38408 ft 446 kts 126°
2026-04-17 09:56 44.51503 14.64308 37640 ft 448 kts 126°
2026-04-17 09:57 44.49636 14.67559 36803 ft 450 kts 127°
2026-04-17 09:57 44.47762 14.70813 36098 ft 452 kts 127°
2026-04-17 09:57 44.45821 14.74178 35442 ft 454 kts 127°
2026-04-17 09:57 44.43941 14.77437 34785 ft 455 kts 127°
2026-04-17 09:58 44.42045 14.80716 34047 ft 457 kts 127°
2026-04-17 09:58 44.40062 14.84145 33238 ft 458 kts 126°
2026-04-17 09:58 44.38106 14.87522 32420 ft 459 kts 126°
2026-04-17 09:58 44.36190 14.90831 31542 ft 461 kts 126°
2026-04-17 09:59 44.34209 14.94241 30560 ft 464 kts 126°
2026-04-17 09:59 44.32209 14.97684 29565 ft 465 kts 126°
2026-04-17 09:59 44.30207 15.01127 28584 ft 464 kts 127°
2026-04-17 09:59 44.28272 15.04449 27770 ft 459 kts 127°
2026-04-17 10:00 44.26498 15.07488 27122 ft 453 kts 127°
2026-04-17 10:00 44.24681 15.10602 26473 ft 446 kts 127°
2026-04-17 10:00 44.22876 15.13687 25776 ft 441 kts 127°
2026-04-17 10:00 44.21071 15.16773 25061 ft 436 kts 127°
2026-04-17 10:01 44.19255 15.19874 24321 ft 431 kts 127°
2026-04-17 10:01 44.17372 15.23087 23553 ft 426 kts 127°
2026-04-17 10:01 44.15508 15.26259 22789 ft 421 kts 127°
2026-04-17 10:01 44.13698 15.29335 22031 ft 416 kts 127°
2026-04-17 10:02 44.11898 15.32393 21279 ft 411 kts 127°
2026-04-17 10:02 44.10102 15.35444 20531 ft 406 kts 127°
2026-04-17 10:02 44.08514 15.38370 19802 ft 401 kts 123°
2026-04-17 10:02 44.06671 15.41139 19080 ft 399 kts 132°
2026-04-17 10:03 44.04910 15.43861 18431 ft 393 kts 129°
2026-04-17 10:03 44.03112 15.46663 17733 ft 388 kts 129°
2026-04-17 10:03 44.01341 15.49468 17069 ft 383 kts 129°
2026-04-17 10:03 43.99617 15.52202 16411 ft 378 kts 128°
2026-04-17 10:04 43.97892 15.54940 15705 ft 375 kts 128°
2026-04-17 10:04 43.96186 15.57644 15012 ft 371 kts 128°
2026-04-17 10:04 43.94490 15.60334 14323 ft 367 kts 128°
2026-04-17 10:04 43.92829 15.62963 13629 ft 362 kts 128°
2026-04-17 10:05 43.91209 15.65523 12974 ft 358 kts 129°
2026-04-17 10:05 43.89605 15.68059 12299 ft 355 kts 129°
2026-04-17 10:05 43.88022 15.70558 11642 ft 351 kts 129°
2026-04-17 10:05 43.86412 15.73100 10963 ft 347 kts 129°
2026-04-17 10:06 43.84834 15.75585 10254 ft 343 kts 129°
2026-04-17 10:06 43.83261 15.78063 9666 ft 341 kts 129°
2026-04-17 10:06 43.81730 15.80467 9689 ft 325 kts 129°
2026-04-17 10:06 43.80258 15.82780 9667 ft 313 kts 129°
2026-04-17 10:07 43.78830 15.85023 9665 ft 304 kts 129°
2026-04-17 10:07 43.77456 15.87180 9669 ft 296 kts 129°
2026-04-17 10:07 43.76142 15.89239 9643 ft 291 kts 129°
2026-04-17 10:07 43.74822 15.91311 9513 ft 290 kts 129°
2026-04-17 10:08 43.73505 15.93375 9367 ft 293 kts 129°
2026-04-17 10:08 43.72228 15.95372 9323 ft 292 kts 129°
2026-04-17 10:08 43.70920 15.97418 9304 ft 290 kts 129°
2026-04-17 10:08 43.69610 15.99466 9281 ft 290 kts 129°
2026-04-17 10:09 43.68293 16.01521 9212 ft 291 kts 129°
2026-04-17 10:09 43.66984 16.03563 9156 ft 291 kts 129°
2026-04-17 10:09 43.65656 16.05636 9116 ft 291 kts 129°
2026-04-17 10:09 43.64330 16.07704 9079 ft 290 kts 129°
2026-04-17 10:10 43.63026 16.09814 9037 ft 289 kts 127°
2026-04-17 10:10 43.61745 16.11994 8995 ft 288 kts 127°
2026-04-17 10:10 43.60476 16.14152 8986 ft 288 kts 127°
2026-04-17 10:11 43.57946 16.18466 8980 ft 286 kts 126°
2026-04-17 10:11 43.56705 16.20578 8973 ft 286 kts 126°
2026-04-17 10:11 43.55456 16.22706 8980 ft 285 kts 126°
2026-04-17 10:11 43.54204 16.24834 8985 ft 285 kts 126°
2026-04-17 10:12 43.52965 16.26940 8986 ft 285 kts 126°
2026-04-17 10:12 43.51709 16.29072 8984 ft 285 kts 126°
2026-04-17 10:12 43.50460 16.31193 8986 ft 285 kts 126°
2026-04-17 10:12 43.49221 16.33293 8983 ft 285 kts 126°
2026-04-17 10:13 43.47969 16.35415 8987 ft 285 kts 126°
2026-04-17 10:13 43.46725 16.37523 8981 ft 285 kts 127°
2026-04-17 10:13 43.45517 16.39566 8987 ft 285 kts 127°
2026-04-17 10:13 43.44259 16.41692 8985 ft 285 kts 127°
2026-04-17 10:14 43.43005 16.43810 8992 ft 285 kts 126°
2026-04-17 10:14 43.41755 16.45922 8999 ft 286 kts 126°
2026-04-17 10:14 43.40506 16.48028 8961 ft 286 kts 127°
2026-04-17 10:14 43.39244 16.50157 8999 ft 286 kts 126°
2026-04-17 10:15 43.38009 16.52237 8974 ft 286 kts 127°
2026-04-17 10:15 43.36769 16.54325 8991 ft 286 kts 127°
2026-04-17 10:15 43.35529 16.56411 8978 ft 286 kts 127°
2026-04-17 10:15 43.34316 16.58449 8969 ft 285 kts 127°
2026-04-17 10:16 43.33087 16.60512 8978 ft 284 kts 127°
2026-04-17 10:16 43.31838 16.62611 8992 ft 284 kts 127°
2026-04-17 10:16 43.30576 16.64730 8968 ft 284 kts 127°
2026-04-17 10:16 43.29330 16.66815 8974 ft 283 kts 127°
2026-04-17 10:17 43.28176 16.68979 8966 ft 281 kts 117°
2026-04-17 10:17 43.27055 16.71170 8987 ft 281 kts 127°
2026-04-17 10:17 43.25919 16.73318 8971 ft 281 kts 123°
2026-04-17 10:17 43.24485 16.75127 8954 ft 285 kts 152°
2026-04-17 10:18 43.22564 16.75589 8971 ft 287 kts 186°
2026-04-17 10:18 43.20721 16.74559 8961 ft 287 kts 218°
2026-04-17 10:18 43.19145 16.72883 8968 ft 287 kts 216°
2026-04-17 10:18 43.17516 16.71292 8959 ft 287 kts 216°
2026-04-17 10:19 43.15901 16.69738 8960 ft 287 kts 216°
2026-04-17 10:19 43.14269 16.68168 8906 ft 277 kts 216°
2026-04-17 10:19 43.12736 16.66655 8200 ft 280 kts 222°
2026-04-17 10:19 43.11697 16.64448 7213 ft 286 kts 256°
2026-04-17 10:20 43.11725 16.61806 6482 ft 278 kts 290°
2026-04-17 10:20 43.12771 16.59661 5863 ft 268 kts 317°
2026-04-17 10:20 43.13991 16.57770 5184 ft 265 kts 317°
2026-04-17 10:20 43.15575 16.56651 4452 ft 259 kts 353°
2026-04-17 10:21 43.17299 16.57016 3791 ft 254 kts 27°
2026-04-17 10:21 43.18661 16.58449 3658 ft 230 kts 36°
2026-04-17 10:21 43.19899 16.59627 3639 ft 208 kts 36°
2026-04-17 10:21 43.21047 16.60760 3399 ft 202 kts 37°
2026-04-17 10:22 43.22183 16.61859 3130 ft 197 kts 34°
2026-04-17 10:22 43.23292 16.62926 2867 ft 193 kts 35°
2026-04-17 10:22 43.24356 16.63939 2603 ft 173 kts 35°
2026-04-17 10:22 43.25237 16.64781 2432 ft 140 kts 34°
2026-04-17 10:23 43.25978 16.65495 2248 ft 123 kts 35°
2026-04-17 10:23 43.26640 16.66119 2076 ft 113 kts 33°
2026-04-17 10:23 43.27248 16.66699 1922 ft 104 kts 35°
2026-04-17 10:23 43.27809 16.67234 1795 ft 96 kts 34°
2026-04-17 10:24 43.28320 16.67721 1725 ft 81 kts 37°
2026-04-17 10:24 43.28572 16.67980 1710 ft 28 kts 34°
2026-04-17 10:24 43.28697 16.68074 1704 ft 8 kts 349°
2026-04-17 10:24 43.28733 16.68022 1704 ft 7 kts 300°
2026-04-17 10:25 43.28772 16.67986 1704 ft 7 kts 24°
2026-04-17 10:25 43.28827 16.68035 1702 ft 11 kts 35°
2026-04-17 10:25 43.28869 16.68079 1700 ft 6 kts 24°
2026-04-17 10:25 43.28881 16.68078 1700 ft 0 kts 12°
2026-04-17 10:26 43.28887 16.68090 1699 ft 0 kts 71°
2026-04-17 10:26 43.28892 16.68107 1699 ft 3 kts 56°
2026-04-17 10:26 43.28919 16.68114 1697 ft 5 kts 348°
2026-04-17 10:26 43.28967 16.68105 1696 ft 3 kts 353°
2026-04-17 10:27 43.28970 16.68105 1696 ft 0 kts 353°
2026-04-17 10:27 43.28984 16.68093 1699 ft 3 kts 288°
2026-04-17 10:27 43.28926 16.68079 1699 ft 19 kts 182°
2026-04-17 10:28 43.28865 16.68022 1701 ft 11 kts 22°
2026-04-17 10:28 43.28873 16.68084 1700 ft 7 kts 38°
2026-04-17 10:28 43.28908 16.68111 1698 ft 4 kts
2026-04-17 10:28 43.28951 16.68115 1694 ft 7 kts